sat.trackr.live / text

‹ back to catalog

DUPLEX

NORAD 66906 · 1998-067XS

PAYLOAD ACTIVE UNKNOWN

§ Identity

Operator
Country
US
Launch date
1998-11-20
Launch site
TYMSC
Launch vehicle
Mass (kg)
RCS (m²)

Purposes: station

External: N2YO · Heavens-Above · Gunter

§ Orbital elements

Epoch: 2026-09-20T03:02:57.470784Z

Period
91.71 min
Inclination
51.6253°
Eccentricity
0.0004483
Mean motion
15.70127789 rev/d
Perigee alt
355.5 km
Apogee alt
361.6 km
Semi-major
6,736.7 km
B*
3.9686e-4
RAAN
167.4684°
Arg perigee
162.7348°
Mean anomaly
197.3803°
Rev number
4,553

§ Raw data

DUPLEX1 66906U 98067XS  26263.12705406  .00048713  00000+0  39686-3 0  99982 66906  51.6253 167.4684 0004483 162.7348 197.3803 15.70127789 45532

JSON: /api/v1/satellites/66906 · /tle

For live sub-satellite position, see the globe view (requires WebGL).

§ Visibility from observer

Set your observer location to see the next 7 days of passes ≥ 10°. The values pass through the URL so the page stays shareable.

No JS? Fill the form by hand. The geolocation button needs JavaScript.